Location: Hall+in+Tirol
(47.2830°N, 11.5170°E)
Time: 08:51:53
(UTC+02:00)

Amateur Radio Satellites - All Passes

Search period start: 28 September 2016 08:21
Search period end: 29 September 2016 08:21
Location: Hall+in+Tirol, 47.2830°N, 11.5170°E

Satellite Date Start Highest point End Downlink Frequencies (MHz)
Time Altitude Azimuth
NOAA 15 28 Sep 08:23:42 08:28:44 44° 293° (WNW) 08:33:42 137.62
O/OREOS (USA 219) 28 Sep 08:26:17 08:30:50 72° 297° (WNW) 08:35:27 437.305
LilacSat-2 28 Sep 08:26:20 08:29:39 28° 292° (WNW) 08:32:58 437.200
PCSat 28 Sep 08:34:44 08:36:40 12° 341° (NNW) 08:38:37 145.827
CUBEBUG 2 28 Sep 08:34:56 08:36:37 12° 88° (E) 08:38:19 437.445
Cubesat XI-IV 28 Sep 08:39:49 08:44:46 39° 294° (WNW) 08:49:44 437.490
CUTE-I 28 Sep 08:40:00 08:44:56 39° 294° (WNW) 08:49:52 437.470
PRISM 28 Sep 08:44:30 08:48:29 45° 70° (ENE) 08:52:30 437.425
COMPASS 1 28 Sep 08:52:20 08:55:42 23° 93° (E) 08:59:03 437.405
UWE-3 28 Sep 08:52:52 08:54:47 13° 89° (E) 08:56:42 435.000/436.395/437.385
CINEMA 3 28 Sep 09:02:16 09:06:26 77° 101° (ESE) 09:10:41 145.822/145.860
BEESAT 3 28 Sep 09:02:19 09:05:50 28° 42° (NE) 09:09:18 437.485
HO-68 28 Sep 09:07:34 09:14:40 61° 103° (ESE) 09:21:43 435.675
GOMX 1 28 Sep 09:08:11 09:10:38 15° 302° (WNW) 09:13:01 467.674
UNISAT 6 28 Sep 09:13:10 09:15:28 14° 60° (ENE) 09:17:45 437.425
CUTE 1.7 + AOD 2 28 Sep 09:18:52 09:23:11 85° 100° (E) 09:27:30 437.475
Oscar 11 28 Sep 09:19:47 09:22:20 15° 89° (E) 09:24:52 145.826/435.025
CANX-2 28 Sep 09:20:08 09:24:28 82° 285° (WNW) 09:28:46 2200.000
SEEDS 28 Sep 09:20:18 09:24:34 63° 101° (E) 09:28:47 437.485
NOAA 18 28 Sep 09:21:31 09:25:55 25° 300° (WNW) 09:30:18 137.9125
ZACube-1 28 Sep 09:21:32 09:24:17 16° 90° (E) 09:27:04 437.345
DOVE 4 28 Sep 09:29:00 09:31:51 18° 298° (WNW) 09:34:39 437.250
DANDE 28 Sep 09:39:23 09:44:01 16° 285° (WNW) 09:48:35 436.750
Cosmos 2499 28 Sep 09:42:46 09:49:55 86° 95° (E) 09:57:02 435.465 / 435.565
AAUSAT CUBESAT 2 28 Sep 09:42:51 09:47:02 60° 100° (E) 09:51:10 437.432
ANTELSAT 28 Sep 09:46:55 09:50:35 29° 66° (ENE) 09:54:15 437.575/2403.000
GONETS M04 28 Sep 09:56:26 10:05:16 74° 282° (WNW) 10:14:11
BEESAT 2 28 Sep 09:57:45 10:01:39 46° 47° (NE) 10:05:31 435.950
JAS-2 28 Sep 10:00:32 10:04:03 15° 45° (NE) 10:07:44 435.910
TIGRISAT 28 Sep 10:07:00 10:11:01 42° 70° (ENE) 10:15:02 435.000
O/OREOS (USA 219) 28 Sep 10:09:02 10:11:08 13° 318° (NW) 10:13:14 437.305
CUBEBUG 2 28 Sep 10:09:28 10:13:44 75° 285° (WNW) 10:18:06 437.445
FUNcube-1 28 Sep 10:14:32 10:18:45 51° 100° (E) 10:23:02 145.935
PRISM 28 Sep 10:21:03 10:24:01 19° 268° (W) 10:27:00 437.425
DUCHIFAT 1 28 Sep 10:25:48 10:26:25 10° 57° (ENE) 10:27:00 145.980
QB50P1 28 Sep 10:26:52 10:28:33 12° 58° (ENE) 10:30:14 145.935-145.965
UWE-3 28 Sep 10:27:26 10:31:43 72° 286° (WNW) 10:36:06 435.000/436.395/437.385
COMPASS 1 28 Sep 10:27:27 10:31:22 37° 291° (WNW) 10:35:16 437.405
POPSAT HIP 1 28 Sep 10:39:24 10:41:57 16° 61° (ENE) 10:44:29 437.405
BEESAT 3 28 Sep 10:39:51 10:43:34 38° 241° (WSW) 10:47:15 437.485
CINEMA 3 28 Sep 10:41:15 10:43:03 13° 301° (WNW) 10:44:50 145.822/145.860
AIST 2 28 Sep 10:43:54 10:45:58 13° 27° (NNE) 10:48:01 435.215
UNISAT 6 28 Sep 10:47:25 10:51:40 70° 258° (WSW) 10:55:56 437.425
Oscar 11 28 Sep 10:54:33 10:58:53 61° 287° (WNW) 11:03:10 145.826/435.025
NANOSAT C BR1 28 Sep 10:54:55 10:58:04 21° 64° (ENE) 11:01:14 145.865
HO-68 28 Sep 10:55:50 11:02:01 33° 302° (WNW) 11:08:10 435.675
CUTE 1.7 + AOD 2 28 Sep 10:56:36 10:58:24 12° 301° (WNW) 11:00:10 437.475
ZACube-1 28 Sep 10:56:41 11:00:55 56° 287° (WNW) 11:05:12 437.345
SEEDS 28 Sep 10:57:13 10:59:48 16° 299° (WNW) 11:02:21 437.485
CANX-2 28 Sep 10:58:34 10:59:35 11° 303° (WNW) 11:00:35 2200.000
DELFI C3 28 Sep 11:02:14 11:06:16 71° 101° (ESE) 11:10:16 145.870
HUMSAT D 28 Sep 11:16:04 11:20:13 51° 100° (E) 11:24:23 437.325/437.525
QB50P2 28 Sep 11:17:34 11:21:28 38° 69° (ENE) 11:25:23 145.880/145.840
AAUSAT CUBESAT 2 28 Sep 11:19:30 11:22:04 16° 299° (WNW) 11:24:38 437.432
POLYITAN 1 28 Sep 11:19:47 11:23:41 38° 69° (ENE) 11:27:35 437.675
ANTELSAT 28 Sep 11:23:29 11:27:15 30° 264° (W) 11:31:02 437.575/2403.000
BEESAT 2 28 Sep 11:36:06 11:39:13 22° 246° (WSW) 11:42:18 435.950
Cosmos 2499 28 Sep 11:39:08 11:44:04 20° 300° (WNW) 11:49:03 435.465 / 435.565
JAS-2 28 Sep 11:40:58 11:47:24 56° 67° (ENE) 11:54:39 435.910
PHONESAT 2.4 28 Sep 11:41:17 11:42:39 13° 160° (SSE) 11:44:00 2401.200-2431.200
TIGRISAT 28 Sep 11:44:45 11:47:55 20° 268° (W) 11:51:06 435.000
FUNcube-1 28 Sep 11:51:37 11:54:40 19° 297° (WNW) 11:57:45 145.935
DUCHIFAT 1 28 Sep 11:57:12 12:01:23 82° 75° (ENE) 12:05:35 145.980
GONETS M04 28 Sep 11:58:00 12:03:53 19° 306° (NW) 12:09:51
ESTCUBE 1 28 Sep 11:58:48 12:02:34 25° 94° (E) 12:06:18 437.505/2401.250
VELOX 1 28 Sep 11:58:56 12:00:44 12° 88° (E) 12:02:33 145.980
BUGSAT 1 28 Sep 11:59:20 12:03:07 37° 69° (ENE) 12:06:52 437.445
QB50P1 28 Sep 11:59:30 12:03:43 83° 259° (WSW) 12:07:56 145.935-145.965
CUBEBUG 1 28 Sep 12:01:51 12:04:43 17° 91° (E) 12:07:34 437.445
PCSat 28 Sep 12:04:28 12:08:29 20° 34° (NE) 12:12:29 145.827
Oscar 19 28 Sep 12:12:44 12:15:58 17° 57° (ENE) 12:19:13 437.125/150
POPSAT HIP 1 28 Sep 12:13:07 12:17:17 61° 259° (WSW) 12:21:28 437.405
AIST 2 28 Sep 12:21:14 12:25:22 53° 48° (NE) 12:29:29 435.215
50 SAT 28 Sep 12:29:08 12:32:01 21° 94° (E) 12:34:53 437.505
NANOSAT C BR1 28 Sep 12:29:33 12:33:33 42° 261° (W) 12:37:33 145.865
DELFI C3 28 Sep 12:38:42 12:40:34 13° 300° (WNW) 12:42:26 145.870
SPROUT 28 Sep 12:41:38 12:44:42 19° 92° (E) 12:47:46 437.525
AISAT 28 Sep 12:49:51 12:54:02 41° 98° (E) 12:58:10 437.250
HUMSAT D 28 Sep 12:52:32 12:55:30 19° 297° (WNW) 12:58:29 437.325/437.525
QB50P2 28 Sep 12:54:05 12:57:24 22° 267° (W) 13:00:44 145.880/145.840
UKube-1 28 Sep 12:55:56 12:59:23 23° 94° (E) 13:02:48 .
POLYITAN 1 28 Sep 12:56:20 12:59:37 22° 267° (W) 13:02:55 437.675
Gurwin Techsat 1B 28 Sep 13:10:53 13:15:12 26° 62° (ENE) 13:19:33 435.225
PHONESAT 2.4 28 Sep 13:15:49 13:18:09 21° 177° (S) 13:20:30 2401.200-2431.200
DX 1 28 Sep 13:24:27 13:28:45 56° 101° (E) 13:33:00 434.975-435.025
JAS-2 28 Sep 13:26:59 13:32:49 33° 269° (W) 13:39:19 435.910
AUBIESAT-1 28 Sep 13:29:58 13:33:03 35° 104° (ESE) 13:36:08 437.475
AO-7 28 Sep 13:30:40 13:36:09 20° 42° (NE) 13:41:37 29.400- 29.500
VELOX 1 28 Sep 13:33:20 13:37:46 77° 285° (WNW) 13:42:08 145.980
ESTCUBE 1 28 Sep 13:35:15 13:39:30 39° 292° (WNW) 13:43:42 437.505/2401.250
BUGSAT 1 28 Sep 13:35:24 13:38:37 22° 266° (W) 13:41:48 437.445
DUCHIFAT 1 28 Sep 13:36:55 13:37:39 10° 273° (W) 13:38:22 145.980
CUBEBUG 1 28 Sep 13:37:06 13:41:20 53° 289° (WNW) 13:45:33 437.445
YUBILEINY 28 Sep 13:44:13 13:52:24 42° 69° (ENE) 14:00:30 435.215
Cosmos 2491 28 Sep 13:47:11 13:52:44 19° 74° (ENE) 13:58:18 435.465 / 435.565
PCSat 28 Sep 13:47:17 13:52:45 81° 56° (NE) 13:58:11 145.827
Oscar 19 28 Sep 13:49:26 13:54:38 83° 256° (WSW) 13:59:53 437.125/150
AIST 2 28 Sep 14:00:25 14:03:31 20° 247° (WSW) 14:06:36 435.215
TISAT 1 28 Sep 14:00:45 14:04:17 26° 95° (E) 14:07:48 437.305
50 SAT 28 Sep 14:02:18 14:05:33 30° 292° (WNW) 14:08:48 437.505
M-CUBED/EXP-1 PRIME 28 Sep 14:07:33 14:10:47 56° 293° (WNW) 14:13:59 437.505
SPROUT 28 Sep 14:16:48 14:20:53 45° 290° (WNW) 14:24:56 437.525
AISAT 28 Sep 14:26:48 14:30:17 23° 296° (WNW) 14:33:45 437.250
Cosmos 2504 28 Sep 14:27:13 14:33:32 29° 66° (ENE) 14:40:07 435.465 / 435.565
ITUPSAT 1 28 Sep 14:28:17 14:29:54 12° 87° (E) 14:31:30 437.325
UKube-1 28 Sep 14:31:31 14:35:34 39° 292° (WNW) 14:39:34 .
SWISSCUBE 28 Sep 14:39:56 14:43:06 17° 90° (E) 14:46:16 437.505
ITAMSAT 1 28 Sep 14:43:26 14:48:22 47° 68° (ENE) 14:53:20 435.822/435.867
Gurwin Techsat 1B 28 Sep 14:49:42 14:54:52 52° 260° (W) 15:00:04 435.225
PHONESAT 2.4 28 Sep 14:51:44 14:53:44 17° 194° (SSW) 14:55:44 2401.200-2431.200
BEESAT 28 Sep 14:52:35 14:56:09 20° 92° (E) 14:59:42 436.000
DX 1 28 Sep 15:01:36 15:04:32 18° 299° (WNW) 15:07:27 434.975-435.025
AUBIESAT-1 28 Sep 15:05:10 15:07:19 16° 302° (WNW) 15:09:28 437.475
VELOX 1 28 Sep 15:12:32 15:13:26 11° 305° (NW) 15:14:20 145.980
SO-50 28 Sep 15:17:15 15:21:20 28° 115° (ESE) 15:25:23 436.795
AO-7 28 Sep 15:19:17 15:27:29 67° 65° (ENE) 15:35:42 29.400- 29.500
PCSat 28 Sep 15:32:01 15:35:28 17° 255° (WSW) 15:38:54 145.827
Oscar 19 28 Sep 15:32:53 15:34:46 12° 274° (W) 15:36:39 437.125/150
TISAT 1 28 Sep 15:36:14 15:39:57 32° 293° (WNW) 15:43:39 437.305
Cosmos 2491 28 Sep 15:39:21 15:48:08 82° 96° (E) 15:57:01 435.465 / 435.565
YUBILEINY 28 Sep 15:41:06 15:49:23 51° 271° (W) 15:57:38 435.215
ITUPSAT 1 28 Sep 16:03:34 16:08:26 89° 107° (ESE) 16:13:15 437.325
MOZHAYETS 4 28 Sep 16:15:38 16:19:30 25° 93° (E) 16:23:21
SWISSCUBE 28 Sep 16:16:34 16:21:20 63° 288° (WNW) 16:26:04 437.505
Cosmos 2504 28 Sep 16:20:08 16:27:25 63° 267° (W) 16:35:09 435.465 / 435.565
ITAMSAT 1 28 Sep 16:23:46 16:28:04 26° 266° (W) 16:32:22 435.822/435.867
BEESAT 28 Sep 16:29:35 16:34:15 53° 290° (WNW) 16:38:54 436.000
NOAA 15 28 Sep 16:31:51 16:33:33 12° 51° (NE) 16:35:16 137.62
AIST 1 28 Sep 16:35:39 16:39:54 57° 78° (ENE) 16:44:06
KKS-1 28 Sep 16:38:24 16:42:07 25° 95° (E) 16:45:48 437.445
CUTE-I 28 Sep 16:48:38 16:50:59 13° 53° (NE) 16:53:22 437.470
Cubesat XI-IV 28 Sep 16:48:39 16:50:58 13° 53° (NE) 16:53:18 437.490
O/OREOS (USA 219) 28 Sep 16:54:01 16:58:30 47° 59° (ENE) 17:02:56 437.305
SO-50 28 Sep 16:56:55 17:01:36 50° 314° (NW) 17:06:15 436.795
HORYU 2 28 Sep 16:59:17 17:03:30 47° 70° (ENE) 17:07:46 437.375
GOMX 1 28 Sep 17:03:05 17:06:29 18° 60° (ENE) 17:09:45 467.674
STARS 28 Sep 17:10:57 17:14:41 27° 95° (E) 17:18:23 437.465
BRITE-PL 28 Sep 17:13:26 17:18:46 43° 68° (ENE) 17:23:58 437.365/2234.400
AO-7 28 Sep 17:13:37 17:20:49 32° 265° (W) 17:28:04 29.400- 29.500
DOVE 4 28 Sep 17:24:26 17:25:59 11° 57° (ENE) 17:27:32 437.250
NOAA 18 28 Sep 17:30:48 17:35:07 24° 59° (ENE) 17:39:26 137.9125
CUBESAT XI-V 28 Sep 17:36:29 17:40:19 24° 93° (E) 17:44:06 437.345
LilacSat-2 28 Sep 17:37:30 17:40:19 20° 65° (ENE) 17:43:09 437.200
Cosmos 2491 28 Sep 17:38:58 17:46:05 27° 299° (WNW) 17:53:17 435.465 / 435.565
ITUPSAT 1 28 Sep 17:43:03 17:45:35 14° 304° (WNW) 17:48:07 437.325
MOZHAYETS 4 28 Sep 17:52:27 17:56:48 40° 291° (WNW) 18:01:07
CUSAT 1 28 Sep 17:52:33 17:55:01 12° 72° (ENE) 17:57:35 437.405
HO-68 28 Sep 17:55:45 17:59:42 16° 46° (NE) 18:03:39 435.675
SWISSCUBE 28 Sep 17:58:03 17:58:11 10° 307° (NW) 17:58:19 437.505
NOAA 15 28 Sep 18:07:05 18:12:19 63° 71° (ENE) 18:17:36 137.62
GONETS M04 28 Sep 18:07:25 18:12:52 17° 52° (NE) 18:18:16
AIST 1 28 Sep 18:14:38 18:17:00 15° 276° (W) 18:19:21
KKS-1 28 Sep 18:14:41 18:18:46 36° 292° (WNW) 18:22:49 437.445
Cosmos 2504 28 Sep 18:17:03 18:19:19 12° 287° (WNW) 18:21:37 435.465 / 435.565
Cubesat XI-IV 28 Sep 18:24:51 18:30:08 72° 72° (ENE) 18:35:28 437.490
CUTE-I 28 Sep 18:24:51 18:30:08 73° 72° (ENE) 18:35:28 437.470
CINEMA 3 28 Sep 18:32:36 18:34:32 13° 60° (ENE) 18:36:26 145.822/145.860
O/OREOS (USA 219) 28 Sep 18:34:04 18:37:36 22° 258° (WSW) 18:41:06 437.305
HORYU 2 28 Sep 18:37:04 18:40:19 20° 268° (W) 18:43:34 437.375
GOMX 1 28 Sep 18:38:38 18:44:01 80° 258° (WSW) 18:49:08 467.674
SO-50 28 Sep 18:40:26 18:43:11 15° 336° (NNW) 18:45:54 436.795
CUTE 1.7 + AOD 2 28 Sep 18:41:57 18:43:16 11° 58° (ENE) 18:44:35 437.475
CANX-2 28 Sep 18:42:33 18:44:32 13° 59° (ENE) 18:46:30 2200.000
STARS 28 Sep 18:47:07 18:51:04 34° 293° (WNW) 18:55:00 437.465
BRITE-PL 28 Sep 18:52:11 18:57:17 33° 266° (W) 19:02:18 437.365/2234.400
DOVE 4 28 Sep 18:58:01 19:02:59 75° 75° (ENE) 19:07:40 437.250
NOAA 18 28 Sep 19:10:00 19:15:24 59° 258° (WSW) 19:20:48 137.9125
LilacSat-2 28 Sep 19:10:58 19:14:26 35° 263° (W) 19:17:55 437.200
CUBESAT XI-V 28 Sep 19:13:25 19:17:52 43° 291° (WNW) 19:22:16 437.345
RS-15 28 Sep 19:14:29 19:23:52 30° 102° (ESE) 19:33:34 29.354- 29.394
DANDE 28 Sep 19:24:40 19:28:55 22° 79° (E) 19:33:59 436.750
CUSAT 1 28 Sep 19:28:49 19:35:09 60° 94° (E) 19:42:47 437.405
Cosmos 2499 28 Sep 19:28:53 19:35:46 38° 70° (ENE) 19:43:05 435.465 / 435.565
CUBEBUG 2 28 Sep 19:36:08 19:38:33 15° 61° (ENE) 19:40:58 437.445
HO-68 28 Sep 19:39:03 19:46:05 62° 67° (ENE) 19:53:08 435.675
COMPASS 1 28 Sep 19:46:05 19:49:25 24° 65° (ENE) 19:52:47 437.405
NOAA 15 28 Sep 19:48:40 19:52:32 20° 269° (W) 19:56:25 137.62
UWE-3 28 Sep 19:53:06 19:55:31 15° 61° (ENE) 19:57:57 435.000/436.395/437.385
GONETS M04 28 Sep 20:02:52 20:11:42 68° 77° (ENE) 20:20:25
CINEMA 3 28 Sep 20:06:41 20:11:08 81° 257° (WSW) 20:15:26 145.822/145.860
Cubesat XI-IV 28 Sep 20:07:17 20:10:46 17° 271° (W) 20:14:16 437.490
CUTE-I 28 Sep 20:07:19 20:10:45 17° 271° (W) 20:14:13 437.470
CUTE 1.7 + AOD 2 28 Sep 20:14:09 20:18:24 88° 70° (ENE) 20:22:42 437.475
SEEDS 28 Sep 20:14:39 20:18:49 63° 73° (ENE) 20:23:02 437.485
CANX-2 28 Sep 20:15:32 20:19:47 79° 258° (WSW) 20:24:05 2200.000
Oscar 11 28 Sep 20:17:35 20:20:32 18° 62° (ENE) 20:23:29 145.826/435.025
ZACube-1 28 Sep 20:20:40 20:23:33 19° 63° (ENE) 20:26:27 437.345
GOMX 1 28 Sep 20:20:59 20:22:47 12° 274° (W) 20:24:33 467.674
STRAND 1 28 Sep 20:28:16 20:33:22 58° 101° (E) 20:38:26 437.568
ISS 28 Sep 20:32:16 20:34:47 21° 139° (SE) 20:37:18 145.825
AAUSAT CUBESAT 2 28 Sep 20:35:41 20:39:46 58° 73° (ENE) 20:43:55 437.432
DOVE 4 28 Sep 20:38:26 20:41:07 15° 271° (W) 20:43:46 437.250
AO-85 28 Sep 20:57:54 21:02:13 27° 115° (ESE) 21:06:20 145.980
DANDE 28 Sep 21:05:18 21:10:43 68° 285° (WNW) 21:17:55 436.750
CUBEBUG 2 28 Sep 21:10:36 21:14:45 61° 259° (W) 21:18:52 437.445
CUSAT 1 28 Sep 21:11:42 21:17:43 33° 297° (WNW) 21:24:39 437.405
FUNcube-1 28 Sep 21:13:01 21:17:02 56° 73° (ENE) 21:21:07 145.935
COMPASS 1 28 Sep 21:20:55 21:24:48 37° 263° (W) 21:28:43 437.405
Cosmos 2499 28 Sep 21:21:54 21:29:04 51° 269° (W) 21:36:46 435.465 / 435.565
RS-15 28 Sep 21:23:04 21:34:49 88° 306° (NW) 21:47:12 29.354- 29.394
UWE-3 28 Sep 21:27:27 21:31:33 60° 259° (W) 21:35:40 435.000/436.395/437.385
HO-68 28 Sep 21:28:08 21:34:15 30° 266° (W) 21:40:25 435.675
DELFI C3 28 Sep 21:50:36 21:54:34 62° 73° (ENE) 21:58:33 145.870
Oscar 11 28 Sep 21:52:04 21:56:17 54° 260° (W) 22:00:33 145.826/435.025
SEEDS 28 Sep 21:52:46 21:54:57 14° 271° (W) 21:57:09 437.485
ZACube-1 28 Sep 21:55:32 21:59:32 47° 261° (W) 22:03:34 437.345
PRISM 28 Sep 21:57:54 22:01:55 46° 100° (E) 22:05:53 437.425
GONETS M04 28 Sep 22:00:32 22:07:50 31° 279° (W) 22:15:06
SO-50 28 Sep 22:05:21 22:08:14 16° 26° (NNE) 22:11:04 436.795
ISS 28 Sep 22:07:43 22:10:58 78° 335° (NNW) 22:14:16 145.825
STRAND 1 28 Sep 22:08:12 22:12:10 23° 300° (WNW) 22:16:07 437.568
HUMSAT D 28 Sep 22:10:08 22:14:05 51° 72° (ENE) 22:18:07 437.325/437.525
AAUSAT CUBESAT 2 28 Sep 22:13:17 22:15:38 15° 271° (W) 22:18:00 437.432
UNISAT 6 28 Sep 22:36:19 22:39:30 19° 92° (E) 22:42:44 437.425
AO-85 28 Sep 22:37:29 22:42:30 53° 312° (NW) 22:47:10 145.980
AUBIESAT-1 28 Sep 22:47:17 22:48:13 11° 54° (NE) 22:49:07 437.475
DX 1 28 Sep 22:51:17 22:51:35 10° 55° (NE) 22:51:52 434.975-435.025
FUNcube-1 28 Sep 22:51:22 22:53:40 15° 270° (W) 22:56:01 145.935
DANDE 28 Sep 22:51:50 22:55:22 15° 312° (NW) 22:59:19 436.750
VELOX 1 28 Sep 22:58:43 23:01:43 18° 61° (ENE) 23:04:43 145.980
CUBEBUG 1 28 Sep 23:00:35 23:04:01 22° 64° (ENE) 23:07:26 437.445
ESTCUBE 1 28 Sep 23:01:06 23:05:10 34° 67° (ENE) 23:09:15 437.505/2401.250
50 SAT 28 Sep 23:09:18 23:11:38 17° 63° (ENE) 23:14:00 437.505
ANTELSAT 28 Sep 23:10:59 23:15:10 41° 98° (E) 23:19:25 437.575/2403.000
M-CUBED/EXP-1 PRIME 28 Sep 23:22:28 23:25:56 28° 63° (ENE) 23:29:12 437.505
DELFI C3 28 Sep 23:27:55 23:29:48 13° 271° (W) 23:31:43 145.870
TIGRISAT 28 Sep 23:31:13 23:35:35 62° 101° (E) 23:40:01 435.000
PRISM 28 Sep 23:33:57 23:36:55 19° 298° (WNW) 23:39:51 437.425
RS-15 28 Sep 23:37:56 23:49:06 42° 336° (NNW) 00:00:40 29.354- 29.394
SPROUT 28 Sep 23:38:06 23:41:26 23° 64° (ENE) 23:44:47 437.525
DUCHIFAT 1 28 Sep 23:41:03 23:41:33 10° 87° (E) 23:42:02 145.980
QB50P1 28 Sep 23:42:43 23:44:37 13° 89° (E) 23:46:30 145.935-145.965
ISS 28 Sep 23:44:41 23:47:46 37° 357° (N) 23:50:51 145.825
SO-50 28 Sep 23:45:06 23:49:41 59° 48° (NE) 23:54:07 436.795
HUMSAT D 28 Sep 23:47:29 23:50:02 16° 270° (W) 23:52:37 437.325/437.525
AISAT 28 Sep 23:49:50 23:54:11 54° 71° (ENE) 23:58:32 437.250
Cosmos 2491 28 Sep 23:51:44 23:54:51 12° 45° (NE) 23:57:58 435.465 / 435.565
UKube-1 28 Sep 23:53:13 23:56:58 30° 66° (ENE) 00:00:45 .
POPSAT HIP 1 28 Sep 23:55:34 23:58:22 17° 91° (E) 00:01:09 437.405
NANOSAT C BR1 29 Sep 00:10:55 00:14:19 23° 94° (E) 00:17:42 145.865
UNISAT 6 29 Sep 00:12:14 00:16:29 49° 289° (WNW) 00:20:48 437.425
AUBIESAT-1 29 Sep 00:18:12 00:22:12 89° 249° (WSW) 00:25:56 437.475
AO-85 29 Sep 00:21:04 00:23:55 15° 333° (NNW) 00:26:40 145.980
DX 1 29 Sep 00:22:36 00:26:57 73° 74° (ENE) 00:31:21 434.975-435.025
JAS-2 29 Sep 00:31:39 00:39:05 43° 94° (E) 00:46:11 435.910
VELOX 1 29 Sep 00:33:22 00:37:45 59° 259° (WSW) 00:42:11 145.980
BEESAT 3 29 Sep 00:34:16 00:36:32 15° 111° (ESE) 00:38:47 437.485
QB50P2 29 Sep 00:34:37 00:38:42 46° 99° (E) 00:42:46 145.880/145.840
CUBEBUG 1 29 Sep 00:35:49 00:40:03 44° 261° (W) 00:44:17 437.445
POLYITAN 1 29 Sep 00:36:50 00:40:54 46° 99° (E) 00:44:58 437.675
ESTCUBE 1 29 Sep 00:38:01 00:41:59 29° 265° (W) 00:45:59 437.505/2401.250
50 SAT 29 Sep 00:41:22 00:44:49 42° 261° (W) 00:48:20 437.505
ANTELSAT 29 Sep 00:48:11 00:51:41 24° 295° (WNW) 00:55:14 437.575/2403.000
TISAT 1 29 Sep 00:55:14 00:58:53 30° 67° (ENE) 01:02:33 437.305
M-CUBED/EXP-1 PRIME 29 Sep 00:56:54 01:00:26 28° 257° (WSW) 01:03:45 437.505
TIGRISAT 29 Sep 01:09:03 01:11:50 17° 299° (WNW) 01:14:40 435.000
BUGSAT 1 29 Sep 01:12:54 01:16:42 39° 98° (E) 01:20:29 437.445
SPROUT 29 Sep 01:13:09 01:17:10 40° 262° (W) 01:21:12 437.525
DUCHIFAT 1 29 Sep 01:13:37 01:17:50 84° 282° (WNW) 01:22:01 145.980
QB50P1 29 Sep 01:16:39 01:20:51 69° 287° (WNW) 01:25:02 145.935-145.965
ISS 29 Sep 01:21:25 01:24:39 53° 17° (NNE) 01:27:53 145.825
SO-50 29 Sep 01:26:22 01:29:44 20° 247° (WSW) 01:33:03 436.795
AISAT 29 Sep 01:28:00 01:30:59 18° 269° (W) 01:33:59 437.250
UKube-1 29 Sep 01:29:07 01:32:58 31° 264° (W) 01:36:50 .
BEESAT 2 29 Sep 01:30:06 01:33:29 28° 117° (ESE) 01:36:54 435.950
POPSAT HIP 1 29 Sep 01:30:21 01:34:26 50° 289° (WNW) 01:38:31 437.405
ITUPSAT 1 29 Sep 01:37:07 01:40:38 21° 61° (ENE) 01:44:10 437.325
Cosmos 2491 29 Sep 01:45:56 01:54:29 49° 72° (ENE) 02:02:56 435.465 / 435.565
NANOSAT C BR1 29 Sep 01:46:18 01:50:08 36° 292° (WNW) 01:54:00 145.865
SWISSCUBE 29 Sep 01:49:03 01:53:08 29° 64° (ENE) 01:57:13 437.505
RS-15 29 Sep 01:54:47 02:05:45 35° 10° (N) 02:16:48 29.354- 29.394
Oscar 19 29 Sep 01:58:15 02:02:38 27° 94° (E) 02:06:58 437.125/150
DX 1 29 Sep 02:01:40 02:03:40 13° 271° (W) 02:05:40 434.975-435.025
BEESAT 29 Sep 02:01:43 02:05:58 34° 66° (ENE) 02:10:15 436.000
BEESAT 3 29 Sep 02:09:49 02:13:43 64° 310° (NW) 02:17:39 437.485
QB50P2 29 Sep 02:11:08 02:14:13 20° 297° (WNW) 02:17:18 145.880/145.840
POLYITAN 1 29 Sep 02:13:20 02:16:25 20° 297° (WNW) 02:19:30 437.675
JAS-2 29 Sep 02:16:37 02:24:09 51° 295° (WNW) 02:31:26 435.910
TISAT 1 29 Sep 02:30:54 02:34:31 28° 264° (W) 02:38:09 437.305
BUGSAT 1 29 Sep 02:48:50 02:51:51 21° 296° (WNW) 02:54:52 437.445
YUBILEINY 29 Sep 02:49:18 02:57:20 42° 86° (E) 03:05:22 435.215
DUCHIFAT 1 29 Sep 02:51:58 02:52:48 11° 303° (WNW) 02:53:40 145.980
ITAMSAT 1 29 Sep 02:54:52 02:57:04 13° 87° (E) 02:59:15 435.822/435.867
ISS 29 Sep 02:58:01 03:01:05 36° 215° (SW) 03:04:09 145.825
Gurwin Techsat 1B 29 Sep 03:02:27 03:07:38 49° 100° (E) 03:12:47 435.225
BEESAT 2 29 Sep 03:07:31 03:11:12 36° 316° (NW) 03:14:56 435.950
Cosmos 2504 29 Sep 03:12:05 03:16:59 20° 79° (E) 03:21:49 435.465 / 435.565
ITUPSAT 1 29 Sep 03:13:25 03:18:05 56° 259° (W) 03:22:49 437.325
AO-7 29 Sep 03:19:09 03:23:52 16° 86° (E) 03:28:34 29.400- 29.500
MOZHAYETS 4 29 Sep 03:20:21 03:24:28 34° 67° (ENE) 03:28:38
SWISSCUBE 29 Sep 03:26:22 03:30:47 38° 262° (W) 03:35:16 437.505
Oscar 19 29 Sep 03:37:14 03:42:07 44° 292° (WNW) 03:46:59 437.125/150
KKS-1 29 Sep 03:39:12 03:43:15 35° 67° (ENE) 03:47:18 437.445
BEESAT 29 Sep 03:39:30 03:43:44 32° 264° (W) 03:48:01 436.000
Cosmos 2491 29 Sep 03:43:04 03:51:15 44° 274° (W) 03:59:22 435.465 / 435.565
AO-85 29 Sep 03:46:48 03:48:55 13° 23° (NNE) 03:50:57 145.980
BEESAT 3 29 Sep 03:50:06 03:52:09 14° 331° (NNW) 03:54:11 437.485
AIST 2 29 Sep 03:59:43 04:03:31 37° 119° (ESE) 04:07:21 435.215
JAS-2 29 Sep 04:03:42 04:07:24 14° 316° (NW) 04:11:05 435.910
RS-15 29 Sep 04:09:05 04:21:22 61° 41° (NE) 04:33:29 29.354- 29.394
STARS 29 Sep 04:10:19 04:14:19 36° 68° (ENE) 04:18:20 437.465
CUSAT 1 29 Sep 04:19:27 04:23:39 15° 48° (NE) 04:27:37 437.405
ITAMSAT 1 29 Sep 04:32:02 04:37:18 86° 106° (ESE) 04:42:32 435.822/435.867
PCSat 29 Sep 04:32:10 04:37:08 38° 113° (ESE) 04:42:08 145.827
CUBESAT XI-V 29 Sep 04:42:31 04:46:44 34° 67° (ENE) 04:50:59 437.345
Gurwin Techsat 1B 29 Sep 04:42:55 04:47:20 27° 298° (WNW) 04:51:43 435.225
YUBILEINY 29 Sep 04:45:34 04:54:01 50° 288° (WNW) 05:02:29 435.215
BEESAT 2 29 Sep 04:49:54 04:50:09 10° 338° (NNW) 04:50:24 435.950
MOZHAYETS 4 29 Sep 04:57:41 05:01:40 29° 265° (W) 05:05:42
Cosmos 2504 29 Sep 05:02:05 05:09:27 82° 279° (W) 05:16:40 435.465 / 435.565
AIST 1 29 Sep 05:08:21 05:12:07 29° 90° (E) 05:15:54
AO-7 29 Sep 05:09:46 05:18:06 73° 107° (ESE) 05:26:22 29.400- 29.500
KKS-1 29 Sep 05:16:04 05:19:52 27° 265° (W) 05:23:40 437.445
AO-85 29 Sep 05:26:16 05:30:26 49° 46° (NE) 05:34:19 145.980
AIST 2 29 Sep 05:38:22 05:42:03 31° 318° (NW) 05:45:47 435.215
STARS 29 Sep 05:47:06 05:50:45 26° 265° (W) 05:54:26 437.465
DANDE 29 Sep 05:57:09 06:04:29 32° 62° (ENE) 06:11:32 436.750
CUSAT 1 29 Sep 05:59:55 06:07:40 57° 72° (ENE) 06:14:15 437.405
STRAND 1 29 Sep 06:10:23 06:13:47 18° 58° (ENE) 06:17:11 437.568
ITAMSAT 1 29 Sep 06:12:55 06:16:05 16° 304° (NW) 06:19:15 435.822/435.867
PCSat 29 Sep 06:15:24 06:20:31 41° 313° (NW) 06:25:40 145.827
CUBESAT XI-V 29 Sep 06:19:56 06:24:06 31° 265° (W) 06:28:19 437.345
NOAA 15 29 Sep 06:20:01 06:23:38 18° 90° (E) 06:27:12 137.62
RS-15 29 Sep 06:22:06 06:33:52 54° 247° (WSW) 06:45:24 29.354- 29.394
HORYU 2 29 Sep 06:23:07 06:27:32 60° 102° (ESE) 06:31:58 437.375
GOMX 1 29 Sep 06:38:28 06:41:55 22° 91° (E) 06:45:14 467.674
CUTE-I 29 Sep 06:39:17 06:43:28 23° 92° (E) 06:47:36 437.470
Cubesat XI-IV 29 Sep 06:39:29 06:43:38 22° 92° (E) 06:47:46 437.490
LilacSat-2 29 Sep 06:41:21 06:44:11 19° 93° (E) 06:47:01 437.200
AIST 1 29 Sep 06:45:49 06:49:40 29° 288° (WNW) 06:53:31
YUBILEINY 29 Sep 06:50:16 06:53:29 12° 314° (NW) 06:56:43 435.215
BRITE-PL 29 Sep 06:53:47 06:58:42 74° 102° (ESE) 07:03:11 437.365/2234.400
DOVE 4 29 Sep 06:55:24 06:57:32 14° 88° (E) 06:59:40 437.250
Cosmos 2504 29 Sep 06:59:33 07:04:06 17° 302° (WNW) 07:08:37 435.465 / 435.565
AO-7 29 Sep 07:03:13 07:10:15 32° 308° (NW) 07:17:18 29.400- 29.500
AO-85 29 Sep 07:07:27 07:10:29 20° 247° (WSW) 07:13:23 145.980
O/OREOS (USA 219) 29 Sep 07:09:49 07:13:44 29° 105° (ESE) 07:17:42 437.305
GONETS M04 29 Sep 07:16:21 07:20:53 15° 71° (ENE) 07:25:24
NOAA 18 29 Sep 07:28:41 07:33:56 45° 99° (E) 07:39:10 137.9125
DANDE 29 Sep 07:39:37 07:48:00 73° 263° (W) 07:55:52 436.750
CUSAT 1 29 Sep 07:42:31 07:49:16 34° 275° (W) 07:55:08 437.405
STRAND 1 29 Sep 07:47:18 07:52:23 74° 257° (WSW) 07:57:32 437.568
CUTE 1.7 + AOD 2 29 Sep 07:57:37 07:59:33 13° 88° (E) 08:01:28 437.475
CANX-2 29 Sep 07:58:36 08:01:08 15° 89° (E) 08:03:38 2200.000
NOAA 15 29 Sep 07:58:38 08:03:56 69° 289° (WNW) 08:09:10 137.62
CINEMA 3 29 Sep 07:58:49 08:01:36 17° 91° (E) 08:04:26 145.822/145.860
HORYU 2 29 Sep 08:00:42 08:03:40 18° 300° (WNW) 08:06:38 437.375
PCSat 29 Sep 08:02:50 08:05:27 13° 337° (NNW) 08:08:04 145.827
BEESAT 2 29 Sep 08:08:06 08:09:43 12° 26° (NNE) 08:11:19 435.950
